FW5819 Weather Reports


Display with metric or nautical units.
time (UTC)temp
F
wind
direction
speed
MPH
gust
MPH
rain 1hr
in
rain 24hr
in
rain mn
in
humidity
%
barometer
mb
20260901233054 81 249 1.0 4.0 0.00 0.00 0.00 72 1015.5
20260901231545 82 227 1.0 8.0 0.00 0.00 0.00 73 1015.7
20260901230041 82 292 2.0 14.0 0.00 0.00 0.00 74 1015.7
20260901224542 83 242 4.0 12.0 0.00 0.00 0.00 74 1015.8
20260901223043 83 224 1.0 9.0 0.00 0.00 0.00 76 1016.0
20260901221539 84 305 2.0 7.0 0.00 0.00 0.00 75 1016.2
20260901220044 85 223 3.0 8.0 0.00 0.00 0.00 73 1016.1
20260901214554 86 242 4.0 9.0 0.00 0.00 0.00 71 1016.4
20260901213110 86 296 2.0 10.0 0.00 0.00 0.00 71 1016.1
20260901211542 87 242 4.0 9.0 0.00 0.00 0.00 69 1016.1
20260901210041 88 321 3.0 12.0 0.00 0.00 0.00 72 1016.0
20260901204545 89 141 4.0 11.0 0.00 0.00 0.00 70 1016.0
20260901203111 90 85 3.0 11.0 0.00 0.00 0.00 70 1016.0
20260901201540 89 248 4.0 14.0 0.00 0.00 0.00 71 1016.1
20260901200042 89 198 4.0 11.0 0.00 0.00 0.00 73 1016.2
20260901194546 88 155 2.0 8.0 0.00 0.00 0.00 74 1016.1
20260901193043 87 236 4.0 16.0 0.00 0.00 0.00 74 1016.2
20260901191550 88 190 4.0 16.0 0.00 0.00 0.00 72 1016.1
20260901190041 88 257 4.0 11.0 0.00 0.00 0.00 73 1016.0
20260901184539 88 212 4.0 11.0 0.00 0.00 0.00 72 1015.9
20260901183051 87 260 3.0 9.0 0.00 0.00 0.00 72 1015.8
20260901181544 87 232 4.0 10.0 0.00 0.00 0.00 73 1015.9
20260901180044 86 240 4.0 11.0 0.00 0.00 0.00 73 1015.9
20260901174547 85 200 2.0 9.0 0.00 0.00 0.00 75 1016.0
20260901173046 85 215 5.0 12.0 0.00 0.00 0.00 74 1016.4
20260901171548 85 217 3.0 8.0 0.00 0.00 0.00 74 1016.5
20260901170043 85 205 1.0 5.0 0.00 0.00 0.00 76 1016.7
20260901164542 86 149 2.0 10.0 0.00 0.00 0.00 73 1016.6
20260901163043 86 208 2.0 6.0 0.00 0.00 0.00 72 1016.6
20260901161548 86 290 1.0 10.0 0.00 0.00 0.00 74 1016.7
20260901160042 87 234 3.0 9.0 0.00 0.00 0.00 74 1016.7
20260901154543 86 268 5.0 12.0 0.00 0.00 0.00 73 1016.8
20260901153047 86 268 3.0 9.0 0.00 0.00 0.00 74 1016.5
20260901151544 85 248 3.0 7.0 0.00 0.00 0.00 73 1016.4
20260901150042 84 161 4.0 11.0 0.00 0.00 0.00 73 1016.6
20260901144543 83 296 6.0 14.0 0.00 0.00 0.00 75 1016.8
20260901143043 82 271 2.0 9.0 0.00 0.00 0.00 76 1016.7
20260901141550 83 240 3.0 11.0 0.00 0.00 0.00 75 1016.6
20260901140046 84 133 4.0 16.0 0.00 0.00 0.00 74 1016.7
20260901134541 83 294 1.0 8.0 0.00 0.00 0.00 75 1016.5
20260901133042 83 305 2.0 7.0 0.00 0.00 0.00 78 1016.4
20260901131540 81 247 2.0 9.0 0.00 0.00 0.00 78 1016.2
20260901130045 80 244 2.0 4.0 0.00 0.00 0.00 81 1016.6
20260901124541 78 189 1.0 4.0 0.00 0.00 0.00 82 1016.8
20260901123043 78 218 0.0 5.0 0.00 0.00 0.00 82 1016.8
20260901121542 78 265 1.0 4.0 0.00 0.00 0.00 82 1016.7
20260901120037 78 257 1.0 3.0 0.00 0.00 0.00 82 1016.7
20260901114543 78 263 1.0 6.0 0.00 0.00 0.00 82 1016.5
20260901113043 78 208 2.0 5.0 0.00 0.00 0.00 82 1016.4
20260901111542 78 232 2.0 5.0 0.00 0.00 0.00 82 1016.4
20260901110040 78 0 1.0 7.0 0.00 0.00 0.00 82 1016.3
20260901104545 77 92 1.0 4.0 0.00 0.00 0.00 82 1016.0
20260901103047 77 229 2.0 7.0 0.00 0.00 0.00 82 1016.0
20260901101557 78 248 1.0 7.0 0.00 0.00 0.00 82 1015.8
20260901100044 78 224 1.0 8.0 0.00 0.00 0.00 82 1015.8
20260901094542 78 111 1.0 8.0 0.00 0.00 0.00 83 1015.8
20260901093046 77 254 2.0 8.0 0.00 0.00 0.00 83 1015.9
20260901091944 77 232 1.0 7.0 0.00 0.00 0.00 83 1015.8
20260901090043 77 0 1.0 8.0 0.00 0.00 0.00 84 1015.7
20260901084537 77 193 1.0 7.0 0.00 0.00 0.00 83 1015.8
20260901083046 77 217 0.0 8.0 0.00 0.00 0.00 83 1015.7
20260901081548 77 226 2.0 5.0 0.00 0.00 0.00 84 1015.7
20260901080051 77 150 1.0 6.0 0.00 0.00 0.00 84 1015.8
20260901074548 76 223 0.0 4.0 0.00 0.00 0.00 85 1015.9
20260901073045 76 0 0.0 4.0 0.00 0.00 0.00 85 1015.9
20260901071540 75 186 0.0 4.0 0.00 0.00 0.00 86 1015.9
20260901070041 75 186 0.0 3.0 0.00 0.00 0.00 86 1015.9
20260901064540 75 181 0.0 4.0 0.00 0.00 0.00 86 1015.9
20260901063040 75 0 0.0 2.0 0.00 0.00 0.00 86 1016.0
20260901061541 75 0 0.0 5.0 0.00 0.00 0.00 86 1016.1
20260901060047 75 150 1.0 3.0 0.00 0.00 0.00 86 1016.2
20260901054543 75 159 0.0 3.0 0.00 0.00 0.00 86 1016.1
20260901053100 75 0 0.0 2.0 0.00 0.00 0.00 87 1016.3
20260901051603 75 0 0.0 4.0 0.00 0.00 0.00 87 1016.4
20260901050043 74 0 0.0 3.0 0.00 0.00 0.00 87 1016.4
20260901044538 74 0 0.0 3.0 0.00 0.00 0.00 88 1016.2
20260901043042 74 0 0.0 2.0 0.00 0.00 0.00 88 1016.4
20260901041601 74 154 0.0 2.0 0.00 0.00 0.00 88 1016.5
20260901040045 74 221 0.0 1.0 0.00 0.00 0.00 88 1016.4
20260901034539 74 0 0.0 4.0 0.00 0.00 0.00 89 1016.4
20260901033042 73 117 0.0 3.0 0.00 0.00 0.00 89 1016.4
20260901031555 73 0 0.0 1.0 0.00 0.00 0.00 88 1016.5
20260901030043 73 0 0.0 1.0 0.00 0.00 0.00 88 1016.5
20260901024542 74 0 0.0 0.0 0.00 0.00 0.00 87 1016.2
20260901023041 74 0 0.0 1.0 0.00 0.00 0.00 87 1016.3
20260901021542 74 0 0.0 1.0 0.00 0.00 0.00 86 1016.0
20260901020040 74 190 0.0 1.0 0.00 0.00 0.00 86 1016.2
20260901014546 74 0 0.0 1.0 0.00 0.00 0.00 84 1016.5
20260901013049 75 65 0.0 1.0 0.00 0.00 0.00 83 1016.6
20260901011543 75 0 0.0 1.0 0.00 0.00 0.00 82 1016.6
20260901010049 76 0 0.0 2.0 0.00 0.00 0.00 81 1016.1
20260901004547 76 0 0.0 3.0 0.00 0.00 0.00 81 1015.7
20260901003040 76 180 1.0 5.0 0.00 0.00 0.00 82 1015.8
20260901001554 76 145 1.0 5.0 0.00 0.00 0.00 82 1016.0
20260901000041 77 0 1.0 3.0 0.00 0.00 0.00 81 1016.7
20260831234555 78 201 0.0 6.0 0.00 0.00 0.00 79 1017.1